Zurück zum Katalog

COSMOS 1510

AktivMilitärLEO
NORAD 14521·PAYLOAD·🇷🇺 Russia

Gestartet Nov 24, 1983 von Plesetsk Cosmodrome

Loading…

Nächste Überflüge (nächste 24 Stunden)

TLE

AktuellSource: Space-Track

Epoche: Sep 14, 2026, 06:43 UTC

1 14521U 83115A   26257.28008000 -.00000004  00000-0  98520-4 0  9994
2 14521  73.6181 191.4270 0027932 204.9162 308.9863 12.41203980940091

Verfolge COSMOS 1510 in Echtzeit mit AllMySat

Download on the App Store